Find Starlink 30955

NORAD ID: 58417 Int'l Des: 2023-180 Owner: SPXS Country: US Constellation: starlink operational
LEOCIRCULAR

Current View

Loading 3D Globe...

About Starlink 30955

Starlink 30955 (NORAD 58417) is a starlink constellation satellite (v2 mini) launched Nov 22, 2023 by SPXS of US. It operates in LEO, CIRCULAR orbit with a mass of 730.00 kg.

About Starlink 30955

Description loading...

Upcoming Passes

Passes for default location (London). Set your location on the main map for personalized predictions.

Altitude History

Loading altitude history...

Two-Line Element Set

1 58417U 23180R 26160.96842133 -.00003697 00000-0 -12499-3 0 9995
2 58417 42.9793 250.9880 0003464 96.4864 263.6381 15.27544400141745
Epoch: Jun 9, 2026 • Age: 83 hours

Current Status

Altitude 496.7 km
Velocity 7.62 km/s
Sub-Earth Point -37.70°S, 122.06°E
Launch Date Nov 22, 2023
Age 2.5 years
Type internet

Technical Details

Classification Payload
Mass 730.00 kg
Dry Mass 700.00 kg
Total Mass 730.00 kg
Length 0.30 m
Diameter 4.10 m
Span 29.00 m
Shape Box + pan
Manufacturer SPXS
Bus Type Starlink V2M
Phase Status In Orbit
Owner/State SPXS/US

Most Searched